TITAN 3C TRANSTAGE R/B, 7324

Orbit data source: Space-Track

TITAN 3C TRANSTAGE R/B, 7324 is space debris in GEO originally from a launch on Thu, 30 May 1974 UTC launched from the Air Force Eastern Test Range (AFETR). Debris objects in space refer to the collection of defunct objects orbiting the Earth. Examples of debris include non-operational satellites, rocket bodies, and fragments generated from explosions, collisions, or faulty payload assembly.

Loading next visibility...
Identifier
7324, 1974-039C
Orbit
GEO
Country
Flag of USUS
Related business
Manufacturer
Martin Marietta
Mission
Spacecraft
Bus & Motor
TRANSTAGE, Unknown motor
Mass
~1,950 kg wet, ~1,950 kg dry
Launch date (UTC)
1974-05-30 (52 years ago)
Launch vehicle
Unknown
Launch site
Air Force Eastern Test Range (AFETR)
Object type
Payload
Rocket body
Debris
Shape & HBR
CYL + 2 NOZZLE, 1.1 m
Radar Cross Section
Large (>1 m²)

Expand to show TLE details & history
Last TLE update: 13 hours ago

TLE from 13 hours ago
0 TITAN 3C TRANSTAGE R/B
1 07324U 74039C   26266.89649780 -.00000265  00000-0  00000-0 0  9996
2 07324   2.4992 257.3457 0032278  89.0687 258.5058  1.00725883120614
Epoch: 2026-09-23T21:30Z
TLE epoch observation values (Epoch: 2026-09-23T21:30:57.409Z)
Latitude
-0.52853°
Longitude
-80.92698°
Altitude
35,687.162 km
Speed
3.077 km/s
True Right ascension
16h 18m 12s
True Declination
0° 31' 41"
Sunlit
Object was in daylight at epoch
Visualization orbit readout
Latitude
Unknown
Longitude
Unknown
Altitude
Unknown
Speed
Unknown
Apparent Right ascension
Unknown
Apparent Declination
Unknown
Sunlit
N/A
Visualization observer readout
Local Sidereal Time
03:27:14
Azimuth
Unknown
Elevation
Unknown
Doppler factor
Unknown
Orbital elements
Apogee altitude
35,796.537 km
Perigee altitude
35,525.15 km
Semi-major axis
42,038.981 km
Eccentricity
0.00323
Inclination
2.4992°
RAAN
257.3457°
Arg. of periapsis
89.0687°
True anomaly
258.14363°
Mean anomaly
258.5058°
Eccentric anomaly
258.32469°
Mean motion
0.25181 °/min
Orbital period
1,429.68 mins
BSTAR
0
Loading maneuver chart data...
Computing Atmospheric mass density...
Loading historical data...
Loading historical data...
Loading historical data...
Loading historical data...
Loading historical data...
Loading historical data...
Loading historical data...
Other satellites on launch #39 in the year 1974 (1974-05-30 UTC)

Documentation

Showing up to 5 results
|